Simultaneous Nadir Overpasses (SNOs) Predictions

Prediction of SNOs between NOAA-19 and TERRA Satellite Orbit:

Table of predicted SNOs for the next 14.0 days since TLE Epoch: 12/24/2022
Index Date (NOAA-19) Time (NOAA-19) Lat,Lon (NOAA-19) SZA (NOAA-19 ) Date (TERRA) Time (TERRA) Lat,Lon (TERRA) SZA (TERRA ) Distance(km) Time Diff (sec)
1 12/24/2022 07:58:42 80.92, 95.82 105.90 12/24/2022 07:58:38 80.92, 95.97 105.91 2.57 4
2 12/26/2022 11:49:32 -80.91,-141.59 74.16 12/26/2022 11:49:34 -80.92,-141.76 74.17 3.15 2
3 12/28/2022 15:40:13 80.92, -19.62 105.69 12/28/2022 15:40:30 80.91, -19.66 105.69 1.08 17
4 12/30/2022 19:31:03 -80.92, 102.94 74.44 12/30/2022 19:31:25 -80.92, 102.77 74.45 3.08 22
5 12/30/2022 20:21:57 80.91, -89.67 105.57 12/30/2022 20:20:48 80.91, -89.68 105.54 0.06 69
6 01/01/2023 23:21:43 80.92,-134.85 105.36 01/01/2023 23:22:20 80.92,-134.96 105.37 2.08 37
7 01/02/2023 00:12:47 -80.91, 32.84 74.61 01/02/2023 00:11:43 -80.92, 32.66 74.64 3.19 64
8 01/04/2023 03:12:34 -80.92, -12.78 74.89 01/04/2023 03:13:15 -80.92, -12.71 74.86 1.53 41
9 01/04/2023 04:03:26 80.92, 155.02 105.16 01/04/2023 04:02:37 80.92, 154.84 105.12 3.05 49
10 01/06/2023 07:03:13 80.92, 109.39 104.85 01/06/2023 07:04:09 80.91, 109.38 104.86 0.82 56



Historial Predications of SNOs between NOAA-19 and TERRA
